Amelia, LA

6:01 PM CDT on March 25, 2017 (GMT -0500)
Amelia

Weather History for K7R3 - December, 2012

Change the Weather History Date:

Thursday, December 6, 2012

  Actual Average Record
Temperature  
Mean Temperature 70 °F -  
Max Temperature 80 °F 62 °F 80 °F (2012)
Min Temperature 60 °F 53 °F 37 °F (2005)
Cooling Degree Days 5    
Growing Degree Days 20 (Base 50)    
Moisture  
Dew Point 63 °F    
Average Humidity 91    
Maximum Humidity 100    
Minimum Humidity 54    
Precipitation  
Precipitation 0.00 in - - ()
Sea Level Pressure  
Sea Level Pressure 29.99 in    
Wind  
Wind Speed 0 mph (NNW)    
Max Wind Speed 4 mph    
Max Gust Speed -    
Visibility 8 miles    
Events Fog , Rain    
Averages and records for this station are not official NWS values.
T = Trace of Precipitation, MM = Missing Value Source: NWS Daily Summary

Daily Weather History Graph

Daily Weather History Graph

Search for Another Location

Airport or City:

Trip Planner

Search our weather history database for the weather conditions in past years. The results will help you decide how hot, cold, wet, or windy it might be!

Date:

Astronomy

Dec. 06, 2012 Rise Set
Actual Time 6:46 AM CST 5:05 PM CST
Civil Twilight 6:20 AM CST 5:31 PM CST
Nautical Twilight 5:50 AM CST 6:00 PM CST
Astronomical Twilight 5:21 AM CST 6:29 PM CST
Moon No Moon Rise 12:04 PM CST (12/6)
Length of Visible Light 11h 11m
Length of Day
10h 18m
Waning Gibbous, 49% of the Moon is Illuminated
Dec 6
Waning Gibbous
Dec 13
New
Dec 19
First Quarter
Dec 28
Full
Jan 4
Last Quarter

Hourly Weather History & Observations

Time (CST) Temp. Heat Index Dew Point Humidity Pressure Visibility Wind Dir Wind Speed Gust Speed Precip Events Conditions
4:25 AM 60.8 °F - 60.8 °F 100% 29.98 in 0.2 mi Calm Calm - N/A Fog Fog
5:07 AM 60.8 °F - 60.8 °F 100% 29.98 in 0.5 mi Calm Calm - N/A Fog Fog
5:37 AM 60.8 °F - 60.8 °F 100% 29.99 in 0.2 mi Calm Calm - N/A Fog Fog
5:46 AM 60.8 °F - 60.8 °F 100% 29.99 in 0.5 mi Calm Calm - N/A   Overcast
5:59 AM 60.8 °F - 60.8 °F 100% 29.99 in 5.0 mi Calm Calm - N/A   Overcast
6:15 AM 60.8 °F - 60.8 °F 100% 30.00 in 10.0 mi Calm Calm - N/A   Overcast
7:39 AM 62.6 °F - 62.6 °F 100% 30.01 in 10.0 mi NNE 3.5 mph - N/A   Overcast
8:15 AM 62.6 °F - 62.6 °F 100% 30.02 in 10.0 mi Calm Calm - N/A   Overcast
8:23 AM 62.6 °F - 62.6 °F 100% 30.01 in 10.0 mi Calm Calm - N/A   Overcast
8:35 AM 62.6 °F - 62.6 °F 100% 30.02 in 10.0 mi Calm Calm - N/A   Overcast
9:23 AM 64.4 °F - 64.4 °F 100% 30.03 in 10.0 mi NE 3.5 mph - N/A   Overcast
9:53 AM 66.2 °F - 64.4 °F 94% 30.03 in 10.0 mi Calm Calm - N/A   Overcast
10:11 AM 66.2 °F - 66.2 °F 100% 30.02 in 10.0 mi Calm Calm - N/A   Overcast
10:55 AM 71.6 °F - 69.8 °F 94% 30.01 in 10.0 mi Calm Calm - N/A   Mostly Cloudy
11:11 AM 71.6 °F - 68.0 °F 88% 30.00 in 10.0 mi Calm Calm - N/A   Mostly Cloudy
11:56 AM 80.6 °F 81.8 °F 62.6 °F 54% 29.98 in 10.0 mi NW 3.5 mph - N/A   Mostly Cloudy
12:26 PM 77.0 °F - 62.6 °F 61% 29.97 in 10.0 mi West 3.5 mph - N/A   Mostly Cloudy
1:20 PM 71.6 °F - 62.6 °F 73% 29.95 in 10.0 mi Calm Calm - N/A   Overcast
2:27 PM 71.6 °F - 62.6 °F 73% 29.94 in 10.0 mi North - - N/A   Mostly Cloudy
2:44 PM 69.8 °F - 66.2 °F 88% 29.93 in 10.0 mi Calm Calm - N/A Rain Light Rain
3:51 PM 69.8 °F - 64.4 °F 83% 29.93 in 10.0 mi Calm Calm - N/A   Mostly Cloudy